Weather History for KATT - November, 2011

Change the Weather History Date:

Thursday, November 3, 2011

  Actual Average Record
Temperature  
Mean Temperature 53 °F 66 °F  
Max Temperature 64 °F 76 °F 87 °F (1919)
Min Temperature 42 °F 55 °F 25 °F (1951)
Degree Days  
Heating Degree Days 12 3  
Month to date heating degree days 12 9  
Since 1 July heating degree days 41 40  
Cooling Degree Days 0 4  
Month to date cooling degree days 8 12  
Year to date cooling degree days 4092 3077  
Growing Degree Days 4 (Base 50)    
Moisture  
Dew Point 22 °F    
Average Humidity 34    
Maximum Humidity 53    
Minimum Humidity 14    
Precipitation  
Precipitation 0.00 in 0.11 in 3.98 in (1946)
Month to date precipitation 0.00 0.33  
Year to date precipitation 11.84 29.29  
Snow  
Snow 0.00 in - - ()
Month to date snowfall 0.0  
Since 1 July snowfall 0.0  
Since 1 September snowfall 0.0  
Snow Depth -    
Sea Level Pressure  
Sea Level Pressure 30.32 in    
Wind  
Wind Speed 9 mph (NNW)    
Max Wind Speed 18 mph    
Max Gust Speed 31 mph    
Visibility 10 miles    
Events      
T = Trace of Precipitation, MM = Missing Value Source: NWS Daily Summary

Daily Weather History Graph

Daily Weather History Graph

Search for Another Location

Airport or City:

Trip Planner

Search our weather history database for the weather conditions in past years. The results will help you decide how hot, cold, wet, or windy it might be!

Date:

Astronomy

Nov. 03, 2011 Rise Set
Actual Time 7:46 AM CDT 6:42 PM CDT
Civil Twilight 7:21 AM CDT 7:06 PM CDT
Nautical Twilight 6:53 AM CDT 7:35 PM CDT
Astronomical Twilight 6:25 AM CDT 8:03 PM CDT
Moon 2:41 PM CDT (11/3) 1:28 AM CDT (11/3)
Length of Visible Light 11h 45m
Length of Day
10h 55m
First Quarter, 60% of the Moon is Illuminated
Nov 3
First Quarter
Nov 10
Full
Nov 18
Last Quarter
Nov 25
New
Dec 2
First Quarter

Hourly Weather History & Observations

Time (CDT) Temp. Windchill Dew Point Humidity Pressure Visibility Wind Dir Wind Speed Gust Speed Precip Events Conditions
12:51 AM 55.0 °F - 30.9 °F 40% 30.29 in 10.0 mi NNW 16.1 mph 27.6 mph N/A   Overcast
1:51 AM 53.1 °F - 30.0 °F 41% 30.31 in 10.0 mi NNW 17.3 mph 28.8 mph N/A   Overcast
2:51 AM 50.0 °F - 30.9 °F 48% 30.32 in 10.0 mi NNW 16.1 mph 31.1 mph N/A   Overcast
3:51 AM 48.9 °F - 30.9 °F 50% 30.31 in 10.0 mi NNW 15.0 mph 26.5 mph N/A   Mostly Cloudy
4:51 AM 46.9 °F - 30.0 °F 52% 30.32 in 10.0 mi North 10.4 mph 24.2 mph N/A   Partly Cloudy
5:51 AM 46.9 °F - 30.0 °F 52% 30.33 in 10.0 mi NNW 12.7 mph 23.0 mph N/A   Scattered Clouds
7:51 AM 44.1 °F 39.5 °F 28.9 °F 55% - 10.0 mi North 8.1 mph - N/A   Clear
8:51 AM 46.0 °F 40.2 °F 28.0 °F 50% - 10.0 mi North 12.7 mph 18.4 mph N/A   Clear
9:51 AM 50.0 °F - 27.0 °F 41% - 10.0 mi North 10.4 mph 23.0 mph N/A   Clear
10:51 AM 53.1 °F - 25.0 °F 34% 30.42 in 10.0 mi North 10.4 mph 23.0 mph N/A   Clear
11:51 AM 55.9 °F - 23.0 °F 28% 30.40 in 10.0 mi NNW 12.7 mph 23.0 mph N/A   Clear
12:51 PM 59.0 °F - 21.0 °F 23% 30.38 in 10.0 mi North 10.4 mph 21.9 mph N/A   Clear
1:51 PM 62.1 °F - 17.1 °F 18% 30.33 in 10.0 mi Variable 6.9 mph 17.3 mph N/A   Clear
2:51 PM 63.0 °F - 12.9 °F 14% 30.31 in 10.0 mi North 8.1 mph 21.9 mph N/A   Clear
3:51 PM 63.0 °F - 14.0 °F 15% 30.30 in 10.0 mi North 10.4 mph 21.9 mph N/A   Clear
4:51 PM 62.1 °F - 15.1 °F 16% 30.29 in 10.0 mi North 11.5 mph 20.7 mph N/A   Clear
5:51 PM 60.1 °F - 15.1 °F 17% 30.29 in 10.0 mi North 8.1 mph - N/A   Clear
6:51 PM 55.9 °F - 16.0 °F 21% 30.29 in 10.0 mi North 6.9 mph - N/A   Clear
7:51 PM 54.0 °F - 17.1 °F 23% 30.30 in 10.0 mi NNW 3.5 mph - N/A   Clear
8:51 PM 52.0 °F - 17.1 °F 25% 30.30 in 10.0 mi NNW 6.9 mph - N/A   Clear
9:51 PM 48.9 °F - 18.0 °F 29% 30.30 in 10.0 mi NNW 3.5 mph - N/A   Clear
10:51 PM 48.0 °F - 18.0 °F 30% 30.31 in 10.0 mi NNW 3.5 mph - N/A   Clear
11:51 PM 46.9 °F - 18.0 °F 32% 30.30 in 10.0 mi NNW 3.5 mph - N/A   Clear